When you browse on this site, cookies collect data to enhance your experience and personalize the content and advertising you see.
Visit our Privacy Policy to learn more. By continuing to use the site, you agree to this use of cookies and data.
  • In Lithuania
  • List of Countries
  • For 7 days
  • Water Temperature
  • Satellite Maps
  • Weather Map
  • Weather Widgets
  • user-avatar
    Login

    Hourly Weather Suzemka

    Today, 23 July, Tuesday

    Time Temperature Precipitation Wind Pressure Humidity
    00:00 +17°C° 0 mm 2 mps 744 mmHg 98%
    01:00 +16°C° 0 mm 2 mps 744 mmHg 98%
    02:00 +16°C° 0 mm 2 mps 744 mmHg 98%
    03:00 +16°C° 0 mm 3 mps 744 mmHg 98%
    04:00 +16°C° 0 mm 3 mps 743 mmHg 98%
    05:00 +14°C° 0 mm 3 mps 743 mmHg 97%
    06:00 +16°C° 0 mm 3 mps 743 mmHg 94%
    07:00 +17°C° 0 mm 3 mps 743 mmHg 91%
    08:00 +18°C° 0 mm 3 mps 743 mmHg 88%
    09:00 +20°C° 0 mm 3 mps 743 mmHg 80%
    10:00 +21°C° 0 mm 3 mps 743 mmHg 72%
    11:00 +24°C° 0 mm 3 mps 743 mmHg 64%
    12:00 +22°C° 0.5 mm 3 mps 743 mmHg 69%
    13:00 +22°C° 0.5 mm 4 mps 743 mmHg 73%
    14:00 +22°C° 0.5 mm 4 mps 743 mmHg 78%
    15:00 +21°C° 0.3 mm 4 mps 743 mmHg 78%
    16:00 +21°C° 0.3 mm 3 mps 743 mmHg 78%
    17:00 +21°C° 0.3 mm 3 mps 743 mmHg 79%
    18:00 +20°C° 0 mm 3 mps 742 mmHg 82%
    19:00 +19°C° 0 mm 2 mps 742 mmHg 85%
    20:00 +17°C° 0 mm 2 mps 742 mmHg 89%
    21:00 +17°C° 0 mm 2 mps 742 mmHg 89%
    22:00 +17°C° 0 mm 2 mps 742 mmHg 89%
    23:00 +16°C° 0 mm 1 mps 742 mmHg 89%

    Tomorrow, 24 July, Wednesday

    Time Temperature Precipitation Wind Pressure Humidity
    00:00 +15°C° 0 mm 1 mps 742 mmHg 92%
    01:00 +15°C° 0 mm 1 mps 742 mmHg 94%
    02:00 +14°C° 0 mm 1 mps 742 mmHg 96%
    03:00 +14°C° 0 mm 1 mps 742 mmHg 96%
    04:00 +14°C° 0 mm 1 mps 742 mmHg 96%
    05:00 +14°C° 0 mm 1 mps 742 mmHg 96%
    06:00 +16°C° 0 mm 1 mps 742 mmHg 90%
    07:00 +17°C° 0 mm 0 mps 742 mmHg 84%
    08:00 +18°C° 0 mm 0 mps 742 mmHg 77%
    09:00 +19°C° 0 mm 0 mps 742 mmHg 73%
    10:00 +20°C° 0 mm 0 mps 742 mmHg 69%
    11:00 +23°C° 0 mm 1 mps 742 mmHg 65%
    12:00 +23°C° 0.2 mm 1 mps 742 mmHg 65%
    13:00 +22°C° 0.2 mm 0 mps 742 mmHg 65%
    14:00 +22°C° 0.2 mm 0 mps 742 mmHg 64%
    15:00 +24°C° 0.4 mm 1 mps 742 mmHg 67%
    16:00 +23°C° 0.4 mm 1 mps 742 mmHg 70%
    17:00 +23°C° 0.4 mm 1 mps 742 mmHg 73%
    18:00 +22°C° 0.5 mm 1 mps 742 mmHg 79%
    19:00 +20°C° 0.5 mm 1 mps 742 mmHg 84%
    20:00 +18°C° 0.5 mm 1 mps 742 mmHg 89%
    21:00 +18°C° 0.1 mm 1 mps 742 mmHg 90%
    22:00 +16°C° 0.1 mm 1 mps 742 mmHg 92%
    23:00 +16°C° 0.1 mm 1 mps 742 mmHg 93%

    Day after tomorrow, 25 July, Thursday

    Time Temperature Precipitation Wind Pressure Humidity
    00:00 +15°C° 0 mm 1 mps 742 mmHg 93%
    01:00 +15°C° 0 mm 1 mps 742 mmHg 94%
    02:00 +15°C° 0 mm 1 mps 742 mmHg 95%
    03:00 +15°C° 0 mm 1 mps 742 mmHg 95%
    04:00 +15°C° 0 mm 1 mps 743 mmHg 96%
    05:00 +15°C° 0 mm 1 mps 743 mmHg 96%
    06:00 +16°C° 0 mm 2 mps 743 mmHg 93%
    07:00 +18°C° 0 mm 2 mps 743 mmHg 89%
    08:00 +19°C° 0 mm 2 mps 743 mmHg 86%
    09:00 +20°C° 0.7 mm 3 mps 743 mmHg 81%
    10:00 +21°C° 0.7 mm 3 mps 743 mmHg 76%
    11:00 +22°C° 0.7 mm 4 mps 743 mmHg 72%
    12:00 +22°C° 0.9 mm 4 mps 743 mmHg 71%
    13:00 +23°C° 0.9 mm 4 mps 743 mmHg 71%
    14:00 +24°C° 0.9 mm 3 mps 743 mmHg 70%
    15:00 +24°C° 0.4 mm 3 mps 743 mmHg 71%
    16:00 +22°C° 0.4 mm 3 mps 743 mmHg 73%
    17:00 +23°C° 0.4 mm 2 mps 743 mmHg 74%
    18:00 +21°C° 0.5 mm 2 mps 743 mmHg 80%
    19:00 +19°C° 0.5 mm 2 mps 743 mmHg 85%
    20:00 +18°C° 0.5 mm 2 mps 742 mmHg 91%
    21:00 +17°C° 0 mm 2 mps 743 mmHg 92%
    22:00 +16°C° 0 mm 1 mps 743 mmHg 93%
    23:00 +16°C° 0 mm 1 mps 743 mmHg 94%

    26 July, Friday

    Time Temperature Precipitation Wind Pressure Humidity
    00:00 +16°C° 0 mm 2 mps 742 mmHg 95%
    01:00 +15°C° 0 mm 2 mps 742 mmHg 95%
    02:00 +15°C° 0 mm 2 mps 742 mmHg 96%
    03:00 +15°C° 0 mm 2 mps 742 mmHg 96%
    04:00 +15°C° 0 mm 2 mps 742 mmHg 96%
    05:00 +16°C° 0 mm 2 mps 742 mmHg 97%
    06:00 +16°C° 0 mm 2 mps 742 mmHg 95%
    07:00 +17°C° 0 mm 2 mps 742 mmHg 94%
    08:00 +18°C° 0 mm 2 mps 742 mmHg 92%
    09:00 +19°C° 0.1 mm 3 mps 742 mmHg 90%
    10:00 +20°C° 0.1 mm 3 mps 742 mmHg 88%
    11:00 +20°C° 0.1 mm 4 mps 743 mmHg 86%
    12:00 +20°C° 0.5 mm 4 mps 742 mmHg 86%
    13:00 +20°C° 0.5 mm 4 mps 742 mmHg 87%
    14:00 +20°C° 0.5 mm 4 mps 742 mmHg 87%
    15:00 +20°C° 0.6 mm 4 mps 742 mmHg 88%
    16:00 +19°C° 0.6 mm 4 mps 742 mmHg 90%
    17:00 +19°C° 0.6 mm 4 mps 742 mmHg 91%
    18:00 +18°C° 0.3 mm 4 mps 742 mmHg 93%
    19:00 +18°C° 0.3 mm 3 mps 742 mmHg 95%
    20:00 +17°C° 0.3 mm 2 mps 742 mmHg 96%
    21:00 +17°C° 0.4 mm 2 mps 742 mmHg 97%
    22:00 +17°C° 0.4 mm 2 mps 742 mmHg 97%
    23:00 +18°C° 0.4 mm 1 mps 742 mmHg 98%

    27 July, Saturday

    Time Temperature Precipitation Wind Pressure Humidity
    00:00 +18°C° 0.4 mm 1 mps 741 mmHg 98%
    01:00 +17°C° 0.4 mm 2 mps 741 mmHg 98%
    02:00 +17°C° 0.4 mm 2 mps 741 mmHg 98%
    03:00 +17°C° 1.4 mm 2 mps 741 mmHg 98%
    04:00 +17°C° 1.4 mm 2 mps 741 mmHg 98%
    05:00 +17°C° 1.4 mm 2 mps 741 mmHg 98%
    06:00 +17°C° 0.2 mm 2 mps 741 mmHg 97%
    07:00 +18°C° 0.2 mm 2 mps 741 mmHg 96%
    08:00 +18°C° 0.2 mm 2 mps 741 mmHg 95%
    09:00 +19°C° 0.3 mm 2 mps 741 mmHg 92%
    10:00 +20°C° 0.3 mm 3 mps 741 mmHg 89%
    11:00 +21°C° 0.3 mm 3 mps 741 mmHg 86%
    12:00 +21°C° 0.2 mm 3 mps 741 mmHg 83%
    13:00 +22°C° 0.2 mm 3 mps 741 mmHg 81%
    14:00 +24°C° 0.2 mm 3 mps 741 mmHg 78%
    15:00 +22°C° 0.2 mm 3 mps 741 mmHg 81%
    16:00 +20°C° 0.2 mm 2 mps 740 mmHg 85%
    17:00 +19°C° 0.2 mm 2 mps 740 mmHg 89%
    18:00 +19°C° 0.1 mm 2 mps 740 mmHg 90%
    19:00 +19°C° 0.1 mm 1 mps 740 mmHg 91%
    20:00 +19°C° 0.1 mm 1 mps 740 mmHg 92%
    21:00 +19°C° 0 mm 1 mps 740 mmHg 93%
    22:00 +17°C° 0 mm 2 mps 740 mmHg 95%
    23:00 +17°C° 0 mm 2 mps 740 mmHg 96%

    28 July, Sunday

    Time Temperature Precipitation Wind Pressure Humidity
    00:00 +17°C° 0 mm 2 mps 740 mmHg 96%
    01:00 +17°C° 0 mm 2 mps 739 mmHg 97%
    02:00 +17°C° 0 mm 2 mps 739 mmHg 97%
    03:00 +16°C° 0 mm 2 mps 739 mmHg 97%
    04:00 +16°C° 0 mm 2 mps 739 mmHg 98%
    05:00 +16°C° 0 mm 2 mps 739 mmHg 98%
    06:00 +18°C° 0 mm 2 mps 739 mmHg 93%
    07:00 +20°C° 0 mm 2 mps 739 mmHg 88%
    08:00 +21°C° 0 mm 3 mps 739 mmHg 83%
    09:00 +24°C° 0.2 mm 3 mps 739 mmHg 77%
    10:00 +25°C° 0.2 mm 3 mps 739 mmHg 71%
    11:00 +26°C° 0.2 mm 3 mps 739 mmHg 65%
    12:00 +26°C° 0.9 mm 3 mps 739 mmHg 70%
    13:00 +25°C° 0.9 mm 4 mps 739 mmHg 75%
    14:00 +23°C° 0.9 mm 5 mps 739 mmHg 80%
    15:00 +22°C° 0.2 mm 5 mps 739 mmHg 79%
    16:00 +21°C° 0.2 mm 5 mps 739 mmHg 78%
    17:00 +20°C° 0.2 mm 6 mps 739 mmHg 78%
    18:00 +17°C° 0 mm 5 mps 739 mmHg 78%
    19:00 +17°C° 0 mm 4 mps 740 mmHg 79%
    20:00 +14°C° 0 mm 4 mps 740 mmHg 80%
    21:00 +13°C° 0 mm 4 mps 740 mmHg 81%
    22:00 +12°C° 0 mm 4 mps 741 mmHg 82%
    23:00 +11°C° 0 mm 4 mps 741 mmHg 83%
    Show more